Weather reports worldwide

Advertisment
St.Bees Head, United Kingdom (3210): temperature & dewpoint: 23.09.2020 01:00:00 - 29.09.2020 01:00:00 (BST)St.Bees Head, United Kingdom (3210): temperature -20cm & temperature -100cm: 23.09.2020 01:00:00 - 29.09.2020 01:00:00 (BST)St.Bees Head, United Kingdom (3210): wind speed & gusts: 23.09.2020 01:00:00 - 29.09.2020 01:00:00 (BST)St.Bees Head, United Kingdom (3210): wind direction: 23.09.2020 01:00:00 - 29.09.2020 01:00:00 (BST)St.Bees Head, United Kingdom (3210): reduced air pressure: 23.09.2020 01:00:00 - 29.09.2020 01:00:00 (BST)St.Bees Head, United Kingdom (3210): visibility: 23.09.2020 01:00:00 - 29.09.2020 01:00:00 (BST)St.Bees Head, United Kingdom (3210): precipitation: 23.09.2020 01:00:00 - 29.09.2020 01:00:00 (BST)
Date & Time tt [°C] td [°C] tt -20cm [°C] tt -100cm [°C] ff [km/h] ff [kn] fx [km/h] fx [kn] dd ppp [hPa] vv [km] rr [mm]
29.09.2020 01:00:00 - - - - - - - - - - - -
29.09.2020 00:00:00 11,1 8,4 - - 11 6 - - NNW 1015,3 23 0,0
28.09.2020 23:00:00 10,8 9,9 - - 5 3 - - NNE 1015,0 19 0,0
28.09.2020 22:00:00 10,9 9,4 - - 8 4 - - NNW 1014,6 24 0,0
28.09.2020 21:00:00 11,9 10,4 - - 4 2 - - NNE 1014,1 25 0,0
28.09.2020 20:00:00 11,7 10,2 - - 8 4 - - N 1013,6 27 0,0
28.09.2020 19:00:00 11,8 11,2 - - 9 5 - - NE 1012,8 25 0,2
28.09.2020 18:00:00 12,5 12,0 - - 13 7 - - WNW 1012,1 0,5 0,8
28.09.2020 17:00:00 11,7 11,2 - - 11 6 - - S 1011,5 0,1 0,4
28.09.2020 16:00:00 11,4 10,8 - - 16 9 - - S 1011,3 0,5 1,0
28.09.2020 15:00:00 11,8 10,9 - - 22 12 - - S 1010,9 3,0 0,0
28.09.2020 14:00:00 12,1 10,3 - - 29 16 - - SSE 1011,0 15 0,0
28.09.2020 13:00:00 11,5 10,5 - - 26 14 - - SSE 1011,3 12 0,0
28.09.2020 12:00:00 11,3 10,0 - - 26 14 - - S 1011,5 12 0,0
28.09.2020 11:00:00 11,7 9,0 - - 24 13 - - SSE 1011,5 22 0,0
28.09.2020 10:00:00 11,0 8,5 12,0 13,7 24 13 - - SSE 1011,6 23 0,0
28.09.2020 09:00:00 10,6 7,9 - - 24 13 - - SSE 1011,5 24 0,0
28.09.2020 08:00:00 9,9 7,2 - - 22 12 - - SSE 1011,5 24 0,0
28.09.2020 07:00:00 9,3 6,3 - - 21 11 - - SSE 1011,8 25 0,0
28.09.2020 06:00:00 8,5 5,9 - - 18 10 - - SSE 1012,1 24 0,0
28.09.2020 05:00:00 8,0 6,0 - - 15 8 - - SSE 1012,5 21 0,0
28.09.2020 04:00:00 7,8 5,7 - - 15 8 - - S 1013,2 21 0,0
28.09.2020 03:00:00 7,3 4,6 - - 13 7 - - SSE 1013,9 23 0,0
28.09.2020 02:00:00 6,0 3,7 - - 9 5 - - SE 1014,4 20 0,0
28.09.2020 01:00:00 5,1 3,3 - - 8 4 - - ESE 1015,0 20 0,0
28.09.2020 00:00:00 4,9 3,2 - - 5 3 - - ESE 1015,3 19 0,0
27.09.2020 23:00:00 5,2 3,2 - - 8 4 - - E 1015,3 19 0,0
27.09.2020 22:00:00 5,6 3,5 - - 8 4 - - E 1015,6 19 0,0
27.09.2020 21:00:00 5,2 2,8 - - 8 4 - - E 1015,6 16 0,0
27.09.2020 20:00:00 7,9 3,4 - - 2 1 - - WNW 1015,5 19 0,0
27.09.2020 19:00:00 8,0 3,8 - - 9 5 - - WNW 1015,7 19 0,0
27.09.2020 18:00:00 9,4 3,9 - - 13 7 - - WNW 1015,7 19 0,0
27.09.2020 17:00:00 10,5 4,7 - - 15 8 - - NW 1015,6 18 0,0
27.09.2020 16:00:00 11,6 5,0 - - 13 7 - - NW 1015,9 18 0,0
27.09.2020 15:00:00 11,1 4,3 - - 15 8 - - N 1016,2 21 0,0
27.09.2020 14:00:00 10,7 3,5 - - 15 8 - - N 1016,3 20 0,0
27.09.2020 13:00:00 11,1 4,7 - - 13 7 - - N 1016,6 20 0,0
27.09.2020 12:00:00 10,1 4,7 - - 13 7 - - N 1017,0 19 0,0
27.09.2020 11:00:00 9,3 4,7 - - 15 8 - - NNE 1017,3 17 0,0
27.09.2020 10:00:00 7,5 3,8 - - 16 9 - - NNE 1017,5 17 0,0
27.09.2020 09:00:00 6,0 2,8 - - 16 9 - - NNE 1018,0 16 0,0
27.09.2020 08:00:00 4,9 2,6 - - 13 7 - - N 1017,7 15 0,0
27.09.2020 07:00:00 5,2 1,9 - - 24 13 - - NE 1017,3 17 0,0
27.09.2020 06:00:00 5,7 2,1 - - 26 14 - - NNE 1017,6 15 0,0
27.09.2020 05:00:00 6,0 2,0 - - 28 15 - - NNE 1018,1 15 0,0
27.09.2020 04:00:00 6,0 2,0 - - 29 16 - - NE 1018,4 16 0,0
27.09.2020 03:00:00 6,7 2,1 - - 28 15 - - NNE 1019,0 17 0,0
27.09.2020 02:00:00 6,9 2,5 - - 31 17 - - NE 1018,9 16 0,0
27.09.2020 01:00:00 7,2 2,9 - - 29 16 - - NE 1018,9 16 0,0
27.09.2020 00:00:00 7,3 3,7 - - 21 11 - - NE 1019,2 15 0,0
26.09.2020 23:00:00 7,6 3,9 - - 22 12 - - NE 1019,1 15 0,0
26.09.2020 22:00:00 7,6 3,7 - - 21 11 - - ENE 1019,0 17 0,0
26.09.2020 21:00:00 10,2 4,7 - - 16 9 - - NNE 1018,6 19 0,0
26.09.2020 20:00:00 10,5 4,7 - - 15 8 - - N 1018,4 19 0,0
26.09.2020 19:00:00 10,6 4,2 - - 21 11 - - NNE 1018,3 19 0,0
26.09.2020 18:00:00 11,8 3,3 - - 22 12 - - N 1018,1 19 0,0
26.09.2020 17:00:00 11,7 3,7 - - 29 16 50 27 NNE 1017,6 19 0,0
26.09.2020 16:00:00 11,7 3,6 - - 29 16 52 28 N 1017,2 21 0,0
26.09.2020 15:00:00 11,8 3,6 - - 37 20 59 32 N 1016,2 23 0,0
26.09.2020 14:00:00 11,5 4,5 - - 37 20 50 27 NNE 1016,4 24 0,0
26.09.2020 13:00:00 10,5 3,6 - - 31 17 54 29 N 1016,7 24 0,0
26.09.2020 12:00:00 9,8 3,3 - - 34 18 55 30 N 1016,4 26 0,0
26.09.2020 11:00:00 9,3 3,4 - - 29 16 - - N 1016,6 27 0,0
26.09.2020 10:00:00 8,4 2,8 - - 29 16 - - N 1016,2 23 0,0
26.09.2020 09:00:00 8,2 3,1 - - 28 15 - - NNW 1015,6 25 0,0
26.09.2020 08:00:00 6,9 2,2 - - 29 16 46 25 N 1015,2 25 0,0
26.09.2020 07:00:00 6,5 2,0 - - 29 16 46 25 NNW 1014,9 22 0,0
26.09.2020 06:00:00 6,6 2,2 - - 29 16 - - NNW 1014,8 22 0,0
26.09.2020 05:00:00 6,8 1,5 - - 29 16 46 25 NNW 1014,6 23 0,0
26.09.2020 04:00:00 6,9 1,5 - - 29 16 46 25 NNW 1014,2 24 0,0
26.09.2020 03:00:00 7,2 1,6 - - 28 15 - - NNW 1014,3 23 0,0
26.09.2020 02:00:00 6,4 1,1 - - 24 13 - - NNE 1014,4 24 0,0
26.09.2020 01:00:00 7,2 1,2 - - 26 14 52 28 NNE 1014,0 26 0,0
26.09.2020 00:00:00 8,4 2,0 - - 35 19 55 30 N 1013,8 25 0,0
25.09.2020 23:00:00 8,9 3,6 - - 37 20 54 29 N 1013,6 25 0,0
25.09.2020 22:00:00 9,2 3,4 - - 41 22 59 32 N 1013,2 26 0,0
25.09.2020 21:00:00 9,8 4,8 - - 39 21 54 29 N 1012,9 26 0,0
25.09.2020 20:00:00 10,2 5,4 - - 35 19 55 30 NNW 1012,2 25 0,0
25.09.2020 19:00:00 10,9 5,5 - - 31 17 57 31 NNW 1011,4 26 0,0
25.09.2020 18:00:00 10,7 5,7 - - 34 18 57 31 NNW 1010,6 28 0,0
25.09.2020 17:00:00 11,7 4,8 - - 35 19 54 29 NNW 1010,1 30 0,0
25.09.2020 16:00:00 12,7 4,8 - - 29 16 52 28 NNW 1009,9 29 0,0
25.09.2020 15:00:00 12,7 5,0 - - 34 18 50 27 NNW 1009,8 30 0,0
25.09.2020 14:00:00 11,8 4,1 - - 31 17 46 25 N 1009,6 30 0,0
25.09.2020 13:00:00 11,9 4,7 - - 31 17 52 28 NNW 1009,1 30 0,0
25.09.2020 12:00:00 11,2 5,2 - - 31 17 55 30 NNW 1008,7 30 0,0
25.09.2020 11:00:00 10,6 5,0 - - 31 17 52 28 NNW 1008,2 30 0,0
25.09.2020 10:00:00 9,1 4,6 13,0 14,4 31 17 48 26 NNW 1007,8 29 0,0
25.09.2020 09:00:00 8,3 4,2 - - 28 15 52 28 NNW 1007,3 30 0,0
25.09.2020 08:00:00 8,4 4,5 - - 34 18 54 29 NNW 1005,9 27 0,0
25.09.2020 07:00:00 7,8 4,4 - - 34 18 59 32 NNW 1005,2 27 0,0
25.09.2020 06:00:00 8,5 4,7 - - 37 20 54 29 N 1004,7 26 0,0
25.09.2020 05:00:00 8,0 4,0 - - 29 16 48 26 N 1004,1 27 0,0
25.09.2020 04:00:00 7,8 4,4 - - 29 16 54 29 N 1003,3 26 0,0
25.09.2020 03:00:00 7,4 4,1 - - 29 16 - - NNE 1002,6 26 0,0
25.09.2020 02:00:00 6,8 4,2 - - 28 15 - - NNE 1002,0 26 0,0
25.09.2020 01:00:00 6,6 4,6 - - 29 16 - - NNE 1001,2 26 0,0
25.09.2020 00:00:00 6,1 4,7 - - 22 12 - - NNE 1000,4 24 0,0
24.09.2020 23:00:00 6,1 4,8 - - 24 13 - - NNE 999,6 29 0,0
24.09.2020 22:00:00 6,7 4,7 - - 24 13 46 25 NNE 998,6 30 0,0
24.09.2020 21:00:00 6,9 4,9 - - 31 17 48 26 ENE 997,4 30 0,0
24.09.2020 20:00:00 6,8 5,2 - - 28 15 - - ENE 996,4 35 0,0
24.09.2020 19:00:00 6,9 5,8 - - 31 17 - - NE 995,3 30 0,2
24.09.2020 18:00:00 7,4 6,2 - - 18 10 - - NE 994,6 30 0,2
24.09.2020 17:00:00 7,3 5,4 - - 11 6 - - N 994,0 13 3,0
24.09.2020 16:00:00 6,8 5,2 - - 8 4 - - SE 993,9 2,3 6,8
24.09.2020 15:00:00 7,1 5,4 - - 9 5 - - SSE 993,3 2,9 7,0
24.09.2020 14:00:00 8,6 5,6 - - 21 11 - - SE 992,4 12 0,2
24.09.2020 13:00:00 9,9 5,6 - - 22 12 - - E 991,6 35 0,0
24.09.2020 12:00:00 9,4 5,6 - - 18 10 - - E 991,6 30 0,0
24.09.2020 11:00:00 8,7 5,2 - - 16 9 - - ESE 991,7 35 0,0
24.09.2020 10:00:00 8,2 5,3 14,0 14,7 18 10 - - ESE 991,4 29 0,0
24.09.2020 09:00:00 7,3 5,1 - - 16 9 - - E 991,2 30 0,0
24.09.2020 08:00:00 5,9 4,0 - - 15 8 - - E 991,5 30 0,0
24.09.2020 07:00:00 5,2 3,9 - - 16 9 - - ESE 991,8 30 0,0
24.09.2020 06:00:00 4,3 2,9 - - 11 6 - - E 992,4 30 0,0
24.09.2020 05:00:00 4,9 3,2 - - 11 6 - - E 993,1 30 0,0
24.09.2020 04:00:00 4,0 2,8 - - 9 5 - - E 994,1 30 0,0
24.09.2020 03:00:00 4,4 3,2 - - 11 6 - - E 994,7 30 0,0
24.09.2020 02:00:00 4,7 3,6 - - 8 4 - - E 995,4 29 0,0
24.09.2020 01:00:00 6,2 4,8 - - 13 7 - - ENE 995,9 29 0,0
24.09.2020 00:00:00 6,0 4,1 - - 9 5 - - ENE 996,5 25 0,0
23.09.2020 23:00:00 6,7 4,7 - - 9 5 - - ENE 996,7 30 0,0
23.09.2020 22:00:00 7,2 4,9 - - 9 5 - - NE 997,1 30 0,0
23.09.2020 21:00:00 8,5 5,8 - - 15 8 - - NE 997,4 30 0,0
23.09.2020 20:00:00 8,9 5,8 - - 22 12 - - NE 997,4 30 0,0
23.09.2020 19:00:00 9,2 6,1 - - 21 11 - - NE 997,7 35 0,0
23.09.2020 18:00:00 10,0 6,9 - - 16 9 - - NE 997,9 30 0,0
23.09.2020 17:00:00 10,9 7,1 - - 24 13 - - NNE 998,1 35 0,0
23.09.2020 16:00:00 11,4 7,5 - - 22 12 - - NNE 998,9 30 0,0
23.09.2020 15:00:00 11,3 7,6 - - 18 10 - - NNE 999,2 30 0,0
23.09.2020 14:00:00 11,8 7,9 - - 16 9 - - NNE 999,7 30 0,0
23.09.2020 13:00:00 12,7 8,7 - - 21 11 - - NNE 999,6 30 0,0
23.09.2020 12:00:00 12,0 8,7 - - 21 11 - - NE 999,8 40 0,0
23.09.2020 11:00:00 11,0 8,4 - - 18 10 - - NNE 1000,2 28 0,0
23.09.2020 10:00:00 9,7 7,4 14,7 14,7 24 13 - - NNE 1000,4 30 0,0
23.09.2020 09:00:00 8,7 6,7 - - 22 12 - - NNE 1000,4 30 0,0
23.09.2020 08:00:00 8,8 6,2 - - 24 13 - - NNE 1000,4 35 0,0
23.09.2020 07:00:00 9,6 6,7 - - 22 12 - - N 1000,2 30 0,0
23.09.2020 06:00:00 9,4 7,0 - - 21 11 - - NNE 999,8 35 0,2
23.09.2020 05:00:00 9,9 7,3 - - 21 11 - - NNE 1000,0 19 0,2
23.09.2020 04:00:00 11,1 8,9 - - 21 11 - - NNW 1000,2 13 0,0
23.09.2020 03:00:00 11,3 9,8 - - 15 8 - - N 999,8 30 0,2
23.09.2020 02:00:00 11,4 10,2 - - 22 12 - - NW 1000,2 10 0,4
23.09.2020 01:00:00 11,8 10,4 - - 21 11 - - WNW 1000,1 10 1,6

tt = temperature
td = dewpoint
tt -20cm = temperature -20cm
tt -100cm = temperature -100cm
ff = wind speed
fx = gusts
dd = wind direction
ppp = reduced air pressure
vv = visibility
rr = precipitation

Next stations